Weather Roundup
Issued by NWS

Home | Current Version | Previous Version | Graphics & Text | Print | Product List | Glossary Off
Versions: 1 2 3 4 5 6 7 8 9 10 11 12 13 14 15 16 17 18 19 20 21 22 23 24 25 26 27 28 29 30 31 32 33 34 35 36 37 38 39 40 41 42 43 44 45 46 47 48 49 50

000
NZUS93 KARX 232110
HRRWXR

CURRENT HOURLY OBSERVATIONS ACROSS
MUCH OF THE UPPER MISSISSIPPI VALLEY
NATIONAL WEATHER SERVICE LA CROSSE WI
300 PM CST THU NOV 23 2017


...SOUTHEAST MINNESOTA...


CITY           SKY/WX    TMP DP  RH WIND       PRES   REMARKS
ROCHESTER      SUNNY     46  26  45 S8        29.86F
ROCHESTER/MAYO FAIR      46  24  40 S6        29.85F
WINONA         SUNNY     46  25  42 SW3       29.87F
AUSTIN         SUNNY     46  27  46 SW7       29.85F
ALBERT LEA     SUNNY     46  23  39 S7        29.85F
DODGE CENTER   SUNNY     45  25  45 S9        29.84F
PRESTON        SUNNY     45  24  42 W3        29.87F
OWATONNA       SUNNY     46  27  46 S8        29.85F
FARIBAULT      SUNNY     46  27  46 S7        29.84F
$$

...ELSEWHERE IN MINNESOTA...


CITY           SKY/WX    TMP DP  RH WIND       PRES   REMARKS
MINNEAPOLIS    MOSUNNY   44  25  47 SW7       29.84F
INTNL FALLS    MOSUNNY   31  21  66 E5        29.69F WCI  26
DULUTH         SUNNY     34  25  69 SW12      29.74F WCI  25
RED WING       SUNNY     43  18  36 SE3       29.84F
REDWOOD FALLS  CLOUDY    51  29  42 S12       29.78F
MANKATO        SUNNY     47  28  47 SW7       29.85S
WORTHINGTON    CLOUDY    53  33  46 SW13      29.81F
FAIRMONT       CLOUDY    50  31  48 S10       29.84F
$$

...SOUTHWEST WISCONSIN...


CITY           SKY/WX    TMP DP  RH WIND       PRES   REMARKS
LA CROSSE      SUNNY     46  22  38 S7        29.88F
PRAIRIE DU CHI SUNNY     46  21  38 CALM      29.90S
BOSCOBEL       SUNNY     48  22  35 VRB5      29.89F
LONE ROCK      SUNNY     45  24  43 SW5       29.90S
PLATTEVILLE    SUNNY     45  26  47 W5        29.90S
FORT MC COY    SUNNY     43  23  44 SW3       29.87F
CAMP DOUGLAS   SUNNY     44  21  39 W3        29.86F
MAUSTON-NEW LI CLEAR     45  23  42 CALM      29.86F
VIROQUA        FAIR      42  25  49 CALM      29.86F
WIS DELLS      SUNNY     44  20  39 W7        29.88R
$$

...ELSEWHERE IN WISCONSIN...


CITY           SKY/WX    TMP DP  RH WIND       PRES   REMARKS
MILWAUKEE      MOSUNNY   45  23  42 SW7       29.89S
MADISON        SUNNY     43  22  43 SW5       29.89S
GREEN BAY      SUNNY     42  23  46 W7        29.87S
EAU CLAIRE     SUNNY     42  20  41 VRB7      29.85F
BLACK RVR FLS  FAIR      45  19  34 SW3       29.86S
MEDFORD        SUNNY     39  22  50 SW7       29.82S WCI  34
WAUSAU         SUNNY     40  21  46 W3        29.83S
WIS RAPIDS     SUNNY     42  21  43 SW6       29.86F
MARSHFIELD     SUNNY     41  20  43 W6        29.84S
RICE LAKE      SUNNY     42  22  46 SW6       29.84F
$$

...NORTHEAST IOWA...


CITY           SKY/WX    TMP DP  RH WIND       PRES   REMARKS
WATERLOO       SUNNY     48  25  40 SW3       29.90F
DUBUQUE        SUNNY     46  26  45 W7        29.90S
DECORAH        SUNNY     46  25  42 S6        29.87F
MASON CITY     SUNNY     47  27  45 SW3       29.88F
CHARLES CITY   SUNNY     48  25  40 SW6       29.89F
OELWEIN        SUNNY     46  27  46 W7        29.90F
$$

...ELSEWHERE IN IOWA...


CITY           SKY/WX    TMP DP  RH WIND       PRES   REMARKS
DES MOINES     PTSUNNY   53  31  42 CALM      29.91F
IOWA CITY      SUNNY     53  29  39 W9        29.93F
FORT DODGE     MOSUNNY   53  33  46 S7        29.88F
MARSHALLTOWN   SUNNY     51  31  46 W5        29.90F
CEDAR RAPIDS   SUNNY     51  29  42 W7        29.90S
$$

...NORTHERN ILLINOIS...


CITY           SKY/WX    TMP DP  RH WIND       PRES   REMARKS
CHICAGO-OHARE  MOSUNNY   45  24  43 SW12      29.91S
CHICAGO-MIDWAY MOSUNNY   47  26  44 SW10      29.92S
MOLINE         SUNNY     50  25  37 VRB3      29.91F
ROCKFORD       SUNNY     47  24  40 W7        29.93S
PEORIA         SUNNY     49  26  41 VRB6      29.93F
$$

NOTE: "FAIR" INDICATES FEW OR NO CLOUDS BELOW 12,000 FEET WITH NO
SIGNIFICANT WEATHER AND/OR OBSTRUCTIONS TO VISIBILITY. WIND
SPEEDS ARE IN MILES-PER-HOUR.




USA.gov is the U.S. government's official web portal to all federal, state and local government web resources and services.